Date String (YYYY-MM-DD hh:mm:ss) UTC,Instrument flags,Ambient pressure (hPa),Sample flow (lpm),Bypass flow (lpm),Sample temperature (°C),Ambient temperature (°C),ASC tube jacket temperature (°C),LED temperature (°C),Box temperature (°C),Sample RH (%),Span deviation,Mass concentration (μg/m³),Mass concentration (μg/m³),Mass concentration (μg/m³)
DateTimeUTC,F1_M11,P_M11,Q1_M11,Q2_M11,T1_M11,T2_M11,T3_M11,T4_M11,T5_M11,U1_M11,ZSPAN_M11,X0_M11,X2_M11,X1_M11
2022-03-25 04:00:00,,0826.1,4.98,0.00,28.2,27.3,00.0,37.4,29.9,09.9,0000.0,0007.71,0003.10,0001.29
2022-03-25 04:01:00,,0826.0,5.01,0.00,28.2,27.3,00.0,37.4,29.8,10.0,0000.0,0007.78,0003.12,0001.28
2022-03-25 04:02:00,,0826.0,5.00,0.00,28.1,27.3,00.0,37.3,29.8,10.1,0000.0,0007.73,0003.11,0001.27
2022-03-25 04:03:00,,0826.0,5.00,0.00,28.1,27.2,00.0,37.3,29.8,10.0,0000.0,0007.69,0003.12,0001.27
2022-03-25 04:04:00,,0826.0,5.02,0.00,28.1,27.2,00.0,37.3,29.7,10.1,0000.0,0007.88,0003.13,0001.27
2022-03-25 04:05:00,,0826.0,4.99,0.00,28.1,27.2,00.0,37.3,29.7,10.0,0000.0,0007.54,0003.12,0001.28
2022-03-25 04:06:00,,0826.0,5.00,0.00,28.0,27.2,00.0,37.3,29.7,10.1,0000.0,0007.57,0003.15,0001.28
2022-03-25 04:07:00,,0826.0,5.01,0.00,28.0,27.2,00.0,37.2,29.7,10.1,0000.0,0007.91,0003.22,0001.29
2022-03-25 04:08:00,,0826.0,4.99,0.00,28.0,27.1,00.0,37.2,29.6,10.1,0000.0,0008.01,0003.26,0001.30
2022-03-25 04:09:00,,0826.1,5.02,0.00,28.0,27.1,00.0,37.2,29.6,10.2,0000.0,0008.11,0003.28,0001.30
2022-03-25 04:10:00,,0826.1,4.99,0.00,28.0,27.0,00.0,37.2,29.6,10.2,0000.0,0008.24,0003.32,0001.29
2022-03-25 04:11:00,,0826.1,5.00,0.00,27.9,27.1,00.0,37.1,29.6,10.2,0000.0,0008.26,0003.32,0001.29
2022-03-25 04:12:00,,0826.1,5.01,0.00,27.9,27.1,00.0,37.1,29.6,10.2,0000.0,0008.21,0003.31,0001.28
2022-03-25 04:13:00,,0826.1,4.99,0.00,27.9,27.1,00.0,37.1,29.6,10.3,0000.0,0008.18,0003.33,0001.31
2022-03-25 04:14:00,,0826.1,4.99,0.00,27.9,27.1,00.0,37.1,29.6,10.3,0000.0,0008.09,0003.27,0001.28
2022-03-25 04:15:00,,0826.1,5.02,0.00,27.9,27.1,00.0,37.1,29.7,10.3,0000.0,0007.91,0003.22,0001.27
2022-03-25 04:16:00,,0826.1,5.00,0.00,28.0,27.2,00.0,37.1,29.7,10.4,0000.0,0007.91,0003.24,0001.28
2022-03-25 04:17:00,,0826.1,4.99,0.00,28.0,27.2,00.0,37.1,29.7,10.4,0000.0,0008.14,0003.32,0001.29
2022-03-25 04:18:00,,0826.1,4.99,0.00,28.0,27.2,00.0,37.1,29.8,10.4,0000.0,0008.05,0003.32,0001.30
2022-03-25 04:19:00,,0826.1,5.01,0.00,28.0,27.3,00.0,37.1,29.8,10.4,0000.0,0008.52,0003.29,0001.30
2022-03-25 04:20:00,,0826.1,5.00,0.00,28.0,27.3,00.0,37.1,29.8,10.4,0000.0,0009.80,0003.31,0001.31
2022-03-25 04:21:00,,0826.2,4.99,0.00,28.1,27.3,00.0,37.1,29.9,10.4,0000.0,0009.99,0003.28,0001.29
2022-03-25 04:22:00,,0826.1,4.99,0.00,28.1,27.3,00.0,37.1,29.9,10.4,0000.0,0010.30,0003.27,0001.28
2022-03-25 04:23:00,,0826.1,5.01,0.00,28.1,27.3,00.0,37.1,29.8,10.5,0000.0,0010.86,0003.29,0001.28
2022-03-25 04:24:00,,0826.1,5.01,0.00,28.0,27.3,00.0,37.1,29.8,10.5,0000.0,0011.04,0003.29,0001.27
2022-03-25 04:25:00,,0826.1,5.00,0.00,28.0,27.2,00.0,37.0,29.7,10.6,0000.0,0010.98,0003.31,0001.28
2022-03-25 04:26:00,,0826.1,4.99,0.00,28.0,27.2,00.0,37.0,29.7,10.7,0000.0,0010.99,0003.34,0001.29
2022-03-25 04:27:00,,0826.1,5.02,0.00,27.9,27.1,00.0,37.0,29.6,10.8,0000.0,0011.03,0003.35,0001.29
2022-03-25 04:28:00,,0826.1,5.00,0.00,27.9,27.1,00.0,37.0,29.6,10.8,0000.0,0010.89,0003.31,0001.28
2022-03-25 04:29:00,,0826.1,4.99,0.00,27.9,27.0,00.0,37.0,29.5,10.8,0000.0,0010.82,0003.26,0001.26
2022-03-25 04:30:00,,0826.2,5.01,0.00,27.8,27.0,00.0,37.0,29.5,10.7,0000.0,0010.99,0003.30,0001.26
2022-03-25 04:31:00,,0826.1,4.98,0.00,27.8,27.0,00.0,37.0,29.5,10.8,0000.0,0009.30,0003.30,0001.26
2022-03-25 04:32:00,,0826.2,5.00,0.00,27.8,27.0,00.0,36.9,29.4,10.8,0000.0,0009.12,0003.30,0001.26
2022-03-25 04:33:00,,0826.2,5.02,0.00,27.8,27.0,00.0,36.9,29.4,10.8,0000.0,0008.79,0003.31,0001.29
2022-03-25 04:34:00,,0826.1,5.00,0.00,27.8,26.9,00.0,36.9,29.4,10.8,0000.0,0008.38,0003.30,0001.31
2022-03-25 04:35:00,,0826.2,4.99,0.00,27.7,26.9,00.0,36.9,29.4,10.9,0000.0,0008.21,0003.34,0001.32
2022-03-25 04:36:00,,0826.1,5.01,0.00,27.7,26.9,00.0,36.9,29.4,10.9,0000.0,0008.35,0003.37,0001.32
2022-03-25 04:37:00,,0826.1,5.00,0.00,27.7,26.8,00.0,36.9,29.4,10.9,0000.0,0008.45,0003.36,0001.32
2022-03-25 04:38:00,,0826.2,4.99,0.00,27.7,26.8,00.0,36.9,29.3,10.9,0000.0,0008.33,0003.33,0001.32
2022-03-25 04:39:00,,0826.2,5.00,0.00,27.7,26.8,00.0,36.8,29.3,11.0,0000.0,0008.31,0003.35,0001.33
2022-03-25 04:40:00,,0826.1,5.02,0.00,27.6,26.8,00.0,36.8,29.3,11.0,0000.0,0008.24,0003.34,0001.34
2022-03-25 04:41:00,,0826.1,4.99,0.00,27.6,26.8,00.0,36.8,29.3,11.0,0000.0,0008.16,0003.29,0001.34
2022-03-25 04:42:00,,0826.1,4.99,0.00,27.6,26.8,00.0,36.8,29.3,11.0,0000.0,0008.19,0003.29,0001.34
2022-03-25 04:43:00,,0826.2,5.01,0.00,27.6,26.8,00.0,36.8,29.3,11.1,0000.0,0008.04,0003.25,0001.35
2022-03-25 04:44:00,,0826.1,5.01,0.00,27.6,26.7,00.0,36.8,29.2,11.1,0000.0,0007.96,0003.25,0001.34
2022-03-25 04:45:00,,0826.1,4.99,0.00,27.5,26.7,00.0,36.7,29.2,11.1,0000.0,0007.99,0003.28,0001.35
2022-03-25 04:46:00,,0826.1,4.99,0.00,27.5,26.7,00.0,36.7,29.2,11.1,0000.0,0007.87,0003.20,0001.33
2022-03-25 04:47:00,,0826.1,5.02,0.00,27.5,26.7,00.0,36.7,29.2,11.1,0000.0,0007.81,0003.17,0001.34
2022-03-25 04:48:00,,0826.2,4.99,0.00,27.5,26.7,00.0,36.7,29.2,11.1,0000.0,0007.66,0003.18,0001.34
2022-03-25 04:49:00,,0826.2,5.00,0.00,27.5,26.8,00.0,36.7,29.3,11.2,0000.0,0007.81,0003.22,0001.34
2022-03-25 04:50:00,,0826.2,4.99,0.00,27.6,26.8,00.0,36.7,29.3,11.1,0000.0,0008.00,0003.20,0001.32
2022-03-25 04:51:00,,0826.1,5.01,0.00,27.6,26.8,00.0,36.7,29.4,11.0,0000.0,0008.22,0003.20,0001.33
2022-03-25 04:52:00,,0826.2,5.00,0.00,27.6,26.9,00.0,36.7,29.4,11.0,0000.0,0008.35,0003.22,0001.33
2022-03-25 04:53:00,,0826.2,5.00,0.00,27.6,26.9,00.0,36.7,29.4,11.0,0000.0,0008.63,0003.21,0001.33
2022-03-25 04:54:00,,0826.2,5.00,0.00,27.6,27.0,00.0,36.7,29.4,11.0,0000.0,0008.62,0003.19,0001.32
2022-03-25 04:55:00,,0826.2,4.99,0.00,27.7,27.0,00.0,36.7,29.4,11.0,0000.0,0008.73,0003.21,0001.34
2022-03-25 04:56:00,,0826.2,4.99,0.00,27.7,27.0,00.0,36.7,29.5,10.9,0000.0,0008.68,0003.18,0001.34
2022-03-25 04:57:00,,0826.2,5.00,0.00,27.7,27.0,00.0,36.7,29.5,10.9,0000.0,0008.61,0003.19,0001.35
2022-03-25 04:58:00,,0826.2,5.01,0.00,27.7,27.1,00.0,36.7,29.5,10.9,0000.0,0008.66,0003.22,0001.36
2022-03-25 04:59:00,,0826.2,4.99,0.00,27.7,27.1,00.0,36.7,29.5,10.9,0000.0,0008.73,0003.25,0001.36
